CDT,Max TemperatureF,Mean TemperatureF,Min TemperatureF,Max Dew PointF,MeanDew PointF,Min DewpointF,Max Humidity, Mean Humidity, Min Humidity, Max Sea Level PressureIn, Mean Sea Level PressureIn, Min Sea Level PressureIn, Max VisibilityMiles, Mean VisibilityMiles, Min VisibilityMiles, Max Wind SpeedMPH, Mean Wind SpeedMPH, Max Gust SpeedMPH,PrecipitationIn, CloudCover, Events, WindDirDegrees
2011-10-1,76,59,42,41,37,32,70,49,27,30.17,30.06,29.97,10,10,10,29,16,36,0.00,2,,171
2011-10-2,83,65,46,47,43,38,71,49,26,30.03,29.98,29.93,10,10,10,16,10,22,0.00,0,,168
2011-10-3,83,66,49,52,45,42,71,50,28,30.04,30.00,29.97,10,10,8,18,8,23,0.00,3,,164
2011-10-4,84,67,49,52,48,45,93,62,31,30.01,29.95,29.84,10,10,10,20,7,24,T,4,,129
2011-10-5,89,75,60,49,48,46,64,44,23,29.84,29.81,29.78,10,10,10,30,16,39,0.00,0,,158
2011-10-6,82,72,61,48,44,41,51,39,26,29.84,29.78,29.70,10,10,10,38,21,46,0.00,3,,151
2011-10-7,77,70,62,54,44,28,58,37,16,29.68,29.55,29.44,10,10,10,46,26,60,T,4,,183
2011-10-8,66,57,48,49,47,43,72,62,52,30.19,29.94,29.64,10,10,10,22,10,33,T,6,Rain,265
2011-10-9,60,51,41,50,44,38,89,70,51,30.30,30.18,30.01,10,10,5,16,7,18,0.12,7,Rain,34
2011-10-10,64,57,50,55,53,49,96,84,72,29.98,29.82,29.73,10,10,5,18,12,24,T,6,Rain,161
2011-10-11,72,59,45,54,48,42,93,70,46,29.72,29.69,29.64,10,10,10,23,8,31,0.01,3,Rain,159
2011-10-12,70,60,50,56,53,48,96,79,61,29.70,29.64,29.61,10,10,3,26,8,37,0.23,6,Rain-Thunderstorm,269
2011-10-13,61,50,38,49,43,37,96,74,51,29.74,29.71,29.65,10,10,10,20,10,26,T,5,Rain,318
2011-10-14,55,45,35,43,38,34,93,72,50,29.85,29.80,29.75,10,10,10,29,12,36,0.00,5,,300
2011-10-15,57,47,36,39,36,32,92,67,41,29.87,29.83,29.80,10,10,10,23,11,29,T,3,,287
2011-10-16,55,47,39,38,32,28,85,62,38,29.89,29.84,29.79,10,10,10,35,18,46,0.00,1,,294
2011-10-17,56,46,35,31,29,25,76,53,30,30.02,29.90,29.82,10,10,10,26,15,32,0.00,2,,320
2011-10-18,48,38,28,33,25,19,82,58,34,30.24,30.15,30.04,10,10,10,22,13,30,0.00,2,,335
2011-10-19,46,35,23,30,26,21,96,75,53,30.30,30.24,30.20,10,10,10,12,6,16,0.00,2,,348
2011-10-20,51,36,20,33,26,17,100,73,46,30.20,30.08,29.94,10,7,0,13,4,17,0.00,3,Fog,205
2011-10-21,61,46,31,39,33,28,89,66,42,30.08,29.96,29.87,10,10,10,20,8,23,0.00,3,,275
2011-10-22,65,46,26,42,35,25,92,66,40,30.11,29.96,29.76,10,10,7,24,9,31,0.00,2,,200
2011-10-23,62,48,33,38,35,29,85,62,39,29.93,29.81,29.75,10,10,10,23,10,30,0.00,3,,290
2011-10-24,53,42,30,36,33,29,96,71,46,30.06,30.01,29.94,10,10,10,10,3,12,0.00,6,,80
2011-10-25,54,45,36,35,32,28,92,65,38,30.10,30.05,30.00,10,10,10,17,4,20,T,8,Rain,37
2011-10-26,54,41,28,39,34,28,96,71,46,30.15,30.11,30.05,10,10,10,20,5,24,0.02,5,,311
2011-10-27,50,35,20,35,28,19,96,69,42,30.07,30.02,29.94,10,10,10,14,5,17,T,4,Rain,204
2011-10-28,53,40,27,34,28,23,96,68,39,30.06,30.02,29.96,10,10,10,20,9,25,0.00,1,,285
2011-10-29,51,35,19,30,25,18,91,65,39,30.03,29.92,29.79,10,10,10,20,9,23,0.01,5,Rain,162
2011-10-30,43,40,36,36,34,31,85,78,70,29.98,29.87,29.75,10,10,9,16,9,20,T,8,Rain,290
2011-10-31,59,43,26,34,30,25,92,64,36,29.98,29.82,29.66,10,10,10,26,12,33,0.00,4,,189